Weather History for Houma, LA

Change the Weather History Date:

Tuesday, August 5, 2014

  Actual Average Record
Temperature  
Mean Temperature 83 °F -  
Max Temperature 93 °F 89 °F 97 °F (1947)
Min Temperature 73 °F 73 °F 65 °F (1939)
Cooling Degree Days 18    
Growing Degree Days 33 (Base 50)    
Moisture  
Dew Point 72 °F    
Average Humidity 81    
Maximum Humidity 94    
Minimum Humidity 46    
Precipitation  
Precipitation 0.00 in - - ()
Sea Level Pressure  
Sea Level Pressure 30.03 in    
Wind  
Wind Speed 1 mph (ENE)    
Max Wind Speed 12 mph    
Max Gust Speed -    
Visibility 5 miles    
Events Fog , Thunderstorm    
Averages and records for this station are not official NWS values.
T = Trace of Precipitation, MM = Missing Value Source: NWS Daily Summary

Daily Weather History Graph

Daily Weather History Graph

Search for Another Location

Airport:

Trip Planner

Search our weather history database for the weather conditions in past years. The results will help you decide how hot, cold, wet, or windy it might be!

Date:

Astronomy

Aug. 05, 2014 Rise Set
Actual Time 6:24 AM CDT 7:52 PM CDT
Civil Twilight 5:59 AM CDT 8:17 PM CDT
Nautical Twilight 5:28 AM CDT 8:48 PM CDT
Astronomical Twilight 4:56 AM CDT 9:19 PM CDT
Moon 3:05 PM CDT (8/5) 1:12 AM CDT (8/5)
Length of Visible Light 14h 18m
Length of Day
13h 27m
Waxing Gibbous, 68% of the Moon is Illuminated
Aug 5
Waxing Gibbous
Aug 10
Full
Aug 17
Last Quarter
Aug 25
New
Sep 2
First Quarter

Hourly Weather History & Observations

Time (CDT) Temp. Heat Index Dew Point Humidity Pressure Visibility Wind Dir Wind Speed Gust Speed Precip Events Conditions
12:15 AM 75.6 °F - 72.5 °F 90% 30.00 in 7.0 mi Calm Calm - N/A   Clear
12:35 AM 75.9 °F - 72.5 °F 89% 30.00 in 7.0 mi Calm Calm - N/A   Clear
12:55 AM 75.6 °F - 71.8 °F 88% 30.00 in 7.0 mi Calm Calm - N/A   Clear
1:15 AM 76.5 °F - 73.0 °F 89% 30.00 in 5.0 mi Calm Calm - N/A   Clear
1:35 AM 75.4 °F - 72.1 °F 90% 29.99 in 4.0 mi Calm Calm - N/A   Clear
1:55 AM 76.1 °F - 72.9 °F 90% 30.00 in 3.0 mi NNW 4.6 mph - N/A   Clear
2:15 AM 76.3 °F - 73.0 °F 90% 30.00 in 5.0 mi Calm Calm - N/A   Clear
2:35 AM 76.1 °F - 72.7 °F 89% 30.00 in 5.0 mi Calm Calm - N/A   Scattered Clouds
2:55 AM 75.4 °F - 72.1 °F 90% 30.00 in 4.0 mi Calm Calm - N/A   Scattered Clouds
3:15 AM 74.8 °F - 71.6 °F 90% 29.99 in 1.0 mi Calm Calm - N/A   Mist
3:35 AM 74.8 °F - 71.8 °F 90% 30.00 in 1.2 mi Calm Calm - N/A Thunderstorm Mist
4:00 AM 74.3 °F - 71.2 °F 90% 30.00 in 0.5 mi Calm Calm - N/A Fog Fog
4:15 AM 73.4 °F - 70.3 °F 90% 30.00 in 1.0 mi Calm Calm - N/A Thunderstorm Mist
4:40 AM 73.6 °F - 70.7 °F 91% 30.01 in 0.5 mi Calm Calm - N/A Fog Fog
4:55 AM 73.4 °F - 70.7 °F 91% 30.01 in 3.0 mi Calm Calm - N/A   Clear
5:15 AM 73.2 °F - 70.5 °F 91% 30.01 in 3.0 mi Calm Calm - N/A   Clear
5:35 AM 74.3 °F - 71.6 °F 91% 30.02 in 5.0 mi Calm Calm - N/A   Clear
5:50 AM 73.4 °F - 71.6 °F 94% 30.02 in 5.0 mi Calm Calm - N/A   Haze
5:55 AM 74.3 °F - 71.2 °F 90% 30.02 in 5.0 mi Calm Calm - N/A   Clear
6:50 AM 75.2 °F - 71.6 °F 89% 30.03 in 5.0 mi Calm Calm - N/A   Clear
7:50 AM 78.8 °F - 71.6 °F 78% 30.04 in 6.0 mi Calm Calm - N/A   Clear
8:50 AM 84.2 °F 90.9 °F 73.4 °F 70% 30.06 in 7.0 mi NNW 6.9 mph - N/A   Clear
9:50 AM 87.8 °F 93.8 °F 71.6 °F 58% 30.07 in 7.0 mi NNW 9.2 mph - N/A   Partly Cloudy
10:50 AM 89.6 °F 96.2 °F 71.6 °F 55% 30.08 in 7.0 mi NNW 9.2 mph - N/A   Scattered Clouds
11:50 AM 89.6 °F 94.7 °F 69.8 °F 52% 30.08 in 7.0 mi SE 4.6 mph - N/A   Scattered Clouds
12:50 PM 91.4 °F 95.4 °F 68.0 °F 46% 30.06 in 7.0 mi SE 4.6 mph - N/A   Scattered Clouds
1:50 PM 91.4 °F 95.4 °F 68.0 °F 46% 30.05 in 7.0 mi South 4.6 mph - N/A   Scattered Clouds
2:50 PM 93.2 °F 100.5 °F 71.6 °F 49% 30.04 in 7.0 mi East 9.2 mph - N/A   Mostly Cloudy
3:34 PM 82.4 °F 87.2 °F 71.6 °F 70% 30.03 in 5.0 mi East 11.5 mph - N/A Thunderstorm Thunderstorm
3:50 PM 80.6 °F 84.6 °F 71.6 °F 74% 30.04 in 6.0 mi ESE 8.1 mph - N/A Thunderstorm Thunderstorm
5:50 PM 82.4 °F 88.2 °F 73.4 °F 74% 30.03 in 7.0 mi Calm Calm - N/A   Scattered Clouds
6:50 PM 82.4 °F 88.2 °F 73.4 °F 74% 30.03 in 7.0 mi Calm Calm - N/A   Scattered Clouds
7:15 PM 81.0 °F 86.3 °F 74.1 °F 80% 30.02 in 5.0 mi Calm Calm - N/A   Haze
7:35 PM 80.6 °F 85.4 °F 73.4 °F 79% 30.02 in 7.0 mi Calm Calm - N/A   Clear
7:55 PM 79.7 °F - 73.0 °F 80% 30.04 in 7.0 mi Calm Calm - N/A   Clear
8:15 PM 78.8 °F - 73.4 °F 83% 30.03 in 7.0 mi Calm Calm - N/A   Clear
8:35 PM 78.1 °F - 73.8 °F 86% 30.03 in 7.0 mi Calm Calm - N/A   Clear
8:55 PM 79.0 °F - 73.6 °F 83% 30.04 in 10.0 mi Calm Calm - N/A   Clear
9:15 PM 78.8 °F - 73.8 °F 84% 30.04 in 7.0 mi Calm Calm - N/A   Clear
9:55 PM 77.5 °F - 73.0 °F 86% 30.04 in 7.0 mi Calm Calm - N/A   Clear
10:15 PM 77.0 °F - 73.2 °F 88% 30.05 in 3.0 mi Calm Calm - N/A   Clear
10:35 PM 76.5 °F - 73.0 °F 89% 30.05 in 4.0 mi Calm Calm - N/A   Clear
10:55 PM 76.3 °F - 73.2 °F 90% 30.05 in 1.0 mi Calm Calm - N/A   Mist
11:15 PM 76.3 °F - 73.4 °F 91% 30.05 in 3.0 mi Calm Calm - N/A   Clear
11:35 PM 76.3 °F - 73.4 °F 91% 30.06 in 1.5 mi Calm Calm - N/A   Mist
11:55 PM 76.3 °F - 73.2 °F 90% 30.06 in 3.0 mi Calm Calm - N/A   Clear